Weather in Varyukhino

Russia / Kemerovo Oblast     56°06′12″N   84°53′35″E
temp.,
°C
wind,
m/s
gust,
m/s
humid.,
%
clouds,
%
prec.,
mm/h
press.,
hPa
HPBL,
m
20 january, thu
thu2001:00−19s3410046 0.0 102853
04:00−21s2410059 0.0 102844
07:00−21s2310046 0.0 102943
10:00−21s2410062 0.0 103153
13:00−14sw359472 0.0 1031157
16:00−13ssw2595100 0.0 1032162
19:00−16s249767 0.0 103355
22:00−19s2310059 0.0 103544
21 january, fri
fri2101:00−20s249962 0.0 103552
04:00−23sse22100100 0.0 103619
07:00−23sse2210072 0.0 103614
10:00−24se1110041 0.0 10369
13:00−15s119422 0.0 103573
16:00−14nw11969 0.0 103312
19:00−19ne2110061 0.0 103413
22:00−20ne2210014 0.0 103315
22 january, sat
sat2201:00−19n2310016 0.0 103345
04:00−19nne2210034 0.0 103219
07:00−20ne1210050 0.0 103318
10:00−21ne1110084 0.0 103411
13:00−12e1389100 0.0 1033119
16:00−12sw119555 0.0 103310
19:00−20s1110059 0.0 10359
22:00−21sse11100100 0.0 10369
23 january, sun
sun2301:00−22sse1110092 0.0 103610
04:00−24sse2110049 0.0 10369
07:00−26s2210033 0.0 103713
10:00−26s2110061 0.0 103814
13:00−18ssw119780 0.0 103778
16:00−16ssw119626 0.0 103739
19:00−21ssw2210084 0.0 103712
22:00−17sw119987 0.0 103833
24 january, mon
mon2401:00−18sw1199100 0.0 103815
04:00−18ssw119987 0.0 103818
07:00−22ssw1110070 0.0 10399
10:00−24s1110088 0.0 104013
13:00−16ssw129598 0.0 103999
16:00−14ssw129460 0.0 103968
19:00−18s119852 0.0 103910
22:00−21s1110057 0.0 10389